Regional Weather Roundup
Issued by NWS

Home | Current Version | Previous Version | Text Only | Print | Product List | Glossary Off
Versions: 1 2 3 4 5 6 7 8 9 10 11 12 13 14 15 16 17 18 19 20 21 22 23 24 25 26 27 28 29 30 31 32 33 34 35 36 37 38 39 40 41 42 43 44 45 46 47 48 49 50

000
ASUS44 KFWD 220415
RWRTX
NORTH TEXAS HOURLY WEATHER ROUNDUP
NATIONAL WEATHER SERVICE FORT WORTH TX
1000 PM CST TUE NOV 21 2017

NOTE: "FAIR" INDICATES FEW OR NO CLOUDS BELOW 12,000 FEET WITH NO
SIGNIFICANT WEATHER AND/OR OBSTRUCTIONS TO VISIBILITY.

TXZ118-119-220500-
DALLAS/FORT WORTH METROPLEX

CITY           SKY/WX    TMP DP  RH WIND       PRES   REMARKS
DFW AIRPORT    CLEAR     57  38  48 N20       30.19R
DALLAS LOVE    CLEAR     58  36  43 N14G23    30.20R
FTW MEACHAM    CLEAR     56  37  49 N13       30.22R
DAL-EXECUTIVE  CLEAR     58  38  47 N18G25    30.18R
FTW-ALLIANCE   CLEAR     54  36  50 N14       30.22R
FTW-NAS-JRB    CLEAR     56  36  47 N13       30.23R
FTW-SPINKS     CLEAR     57  37  47 N15G22    30.21R
ARLINGTON      CLEAR     57  38  48 N16       30.19R
GRAND PRAIRIE  CLEAR     56  37  49 N15       30.21R
ADDISON        CLEAR     57  37  47 N14G23    30.19S
MESQUITE       CLEAR     56  38  50 N16G24    30.19R
LANCASTER      CLEAR     57  38  49 N14G21    30.20R
$$

TXZ091>094-102>105-117-120-121-131>134-220500-
NORTH CENTRAL TEXAS

CITY           SKY/WX    TMP DP  RH WIND       PRES   REMARKS
SHRMAN/DENISON CLEAR     54  35  48 N18G28    30.23R
GAINESVILLE    CLEAR     51  32  48 N9        30.26R
BOWIE          CLEAR     51  32  47 N10       30.27R
BRIDGEPORT     CLEAR     53  32  44 N8        30.27R
DECATUR        CLEAR     52  32  45 N9        30.24R
DENTON         CLEAR     53  36  52 N12       30.23R
MCKINNEY       CLEAR     54  37  52 N14       30.20R
BONHAM         CLEAR     51  36  56 N9G17     30.21R
GREENVILLE     CLEAR     55  41  58 N8        30.19R
ROCKWALL       CLEAR     55  39  55 N10G16    30.19R
TERRELL        CLEAR     57  40  52 N14G22    30.17R
WAXAHACHIE     CLEAR     57  41  55 N14G20    30.19R
CLEBURNE       CLEAR     57  39  51 NE17G24   30.21R
GRANBURY       CLEAR     57  36  45 N12G18    30.24R
$$

TXZ083>090-098>101-113>116-127>130-139>142-154-155-220500-
WESTERN NORTH TEXAS

CITY           SKY/WX    TMP DP  RH WIND       PRES   REMARKS
WICHITA FALLS  CLEAR     49  27  42 N24G33    30.31R
WF-KICKAPOO    CLEAR     51  28  41 N21G30    30.34R
VERNON         CLEAR     49  25  38 NE10      30.34S
ABILENE        CLEAR     50  30  46 N14       30.30R
ABILENE-DYESS  CLEAR     51  32  48 NE15G22   30.30R
GRAHAM           N/A     51  32  47 N10G17    30.28R
BRECKENRIDGE   CLEAR     54  30  40 N10G16    30.29R
CISCO          CLEAR     52  30  43 N15G22    30.27R
EASTLAND       CLEAR     52  31  44 N13G20    30.26R
RANGER         CLEAR     51  33  49 N9        30.26R
MINERAL WELLS  CLEAR     55  31  39 N15       30.23R
STEPHENVILLE   PTCLDY    55  33  44 N15G23    30.25R
COMANCHE       CLEAR     54  34  47 N14G22    30.24R
BROWNWOOD      MOCLDY    54  32  43 N15G22    30.24R
COLEMAN        CLEAR     52  30  42 N20G25    30.25R
$$

TXZ143>147-156>162-174-175-220500-
CENTRAL TEXAS

CITY           SKY/WX    TMP DP  RH WIND       PRES   REMARKS
WACO           MOCLDY    60  48  64 N13       30.14R
WACO-TSTC      CLEAR     59  50  72 N12       30.14R
WACO-MCGREGOR  CLOUDY    62  48  60 N16       30.15R
HILLSBORO      CLEAR     58  46  64 N16G22    30.16R
CORSICANA      MOCLDY    60  51  72 N9        30.15R
MEXIA          CLOUDY    61  52  72 N7        30.12R
HEARNE         CLOUDY    63  59  87 N6        30.10R
CAMERON        CLOUDY    63  54  72 N13       30.10R
TEMPLE         CLOUDY    62  49  62 N12       30.13R
KILLEEN        CLOUDY    60  47  62 NE15G22   30.13R
KILLEEN-SKYLRK MOCLDY    61  48  62 N13       30.14R
FORT HOOD      MOCLDY    60  47  62 N13       30.11R
GATESVILLE     CLEAR     57  46  67 N9        30.17R
HAMILTON       CLEAR     55  37  52 N17       30.19R
LAMPASAS       CLEAR     55  46  71 N9G16     30.16R
$$

TXZ095>097-106>112-122>126-135>138-148>153-164>167-220500-
EAST TEXAS

CITY           SKY/WX    TMP DP  RH WIND       PRES   REMARKS
PARIS          CLEAR     48  41  76 N9        30.19R
SULPHUR SPRNGS CLEAR     54  45  71 N12       30.19R
MOUNT PLEASANT CLEAR     56  51  84 N8        30.16R
GILMER         CLEAR     51  49  93 CALM      30.14R
MINEOLA        PTCLDY    57  50  77 N5        30.15R
TYLER          PTCLDY    56  53  90 NE5       30.13R
LONGVIEW       PTCLDY    55  54  96 N5        30.13R
MARSHALL       PTCLDY    53  49  89 CALM      30.15R
ATHENS         PTCLDY    55  50  82 NE3       30.12R
PALESTINE      MOCLDY    57  55  92 N5        30.14R
JACKSONVILLE   CLOUDY    57  55  94 N5        30.14R
HENDERSON      CLOUDY    57  53  86 N5        30.14R
CENTER         CLOUDY    54  52  92 N6        30.13R
NACOGDOCHES    CLOUDY    57  54  89 N3        30.12R
LUFKIN         CLOUDY    58  55  90 N7        30.09R
$$

SUPPLEMENTAL OBSERVATIONS (NWS FORT WORTH AREA)

CITY           SKY/WX    TMP DP  RH WIND       PRES   REMARKS
DENISON DAM      N/A     55  34  44 N18         N/A
CADDO GRASSLND   N/A     52  37  58 N2          N/A
PAT MAYSE LAKE   N/A     52  39  62 NW8         N/A
GREENVILLE       N/A     52  37  58 VRB9        N/A
CEDAR HILL       N/A     57  36  44 NE10G23     N/A
LBJ GRASSLAND    N/A     54  32  43 N8G16       N/A
POSSUM KINGDOM   N/A     52  32  46 N9          N/A
GRANBURY         N/A     55  34  44 N13         N/A
COMANCHE         N/A     54  32  43 N15G23      N/A
MCGREGOR         N/A     61  45  55 N14         N/A
TEMPLE           N/A     63  48  59 N16G25      N/A
LAKE LIMESTONE   N/A     61  57  88 NE9         N/A
ATHENS           N/A     57  54  88 N3          N/A
$$

SUPPLEMENTAL OBSERVATIONS (NWS NORMAN AREA)

CITY           SKY/WX    TMP DP  RH WIND       PRES   REMARKS
GOODLETT         N/A     44  28  52 N12       30.37R WCI  38
ODELL            N/A     46  28  50 N14       30.36R WCI  40
CROWELL          N/A     47  29  48 NE13      30.36R
KNOX CITY        N/A     51  28  41 N10       30.34R
SEYMOUR          N/A     51  29  43 N20G28    30.33S
MILLERS CREEK    N/A     52  30  43 N16G23      N/A
$$

SUPPLEMENTAL OBSERVATIONS (NWS SAN ANGELO AREA)

CITY           SKY/WX    TMP DP  RH WIND       PRES   REMARKS
WEINERT          N/A     50  30  45 N18       30.32S
HASKELL          N/A     51  28  41 N21G26    30.31S
THROCKMORTON     N/A     50  31  49 N9        30.32R
STAMFORD         N/A     51  31  46 N13       30.32S
CLYDE            N/A     49  31  48 N14       30.31R
HAMBY            N/A     52  32  46 NE12G22     N/A
IVIE RESERVOIR   N/A     54  30  40 N14G24      N/A
COLORADO BEND    N/A     54  37  54 N6          N/A
$$

SUPPLEMENTAL OBSERVATIONS (NWS SHREVEPORT AREA)

CITY           SKY/WX    TMP DP  RH WIND       PRES   REMARKS
CLARKSVILLE      N/A     52  43  71 N6          N/A
TEXARKANA        N/A     54  50  87 CALM        N/A
LINDEN           N/A     54  48  82 CALM        N/A
CADDO LAKE       N/A     52  48  87 CALM        N/A
GILMER           N/A     52  46  82 CALM        N/A
HENDERSON        N/A     57  54  88 NE1         N/A
LUFKIN           N/A     57  54  88 MISG        N/A
N SABINE NF      N/A     54  52  94 MISG        N/A
S SABINE NF      N/A     55  54  94 N3          N/A
$$

SUPPLEMENTAL OBSERVATIONS ARE A COLLECTION OF AUTOMATED INSTRUMENTS
THAT ARE MAINTAINED BY A VARIETY OF FEDERAL AND STATE AGENCIES.
CERTAIN ELEMENTS...SUCH AS HUMIDITY VALUES AND SUSTAINED WIND
SPEEDS...MAY BE APPROXIMATED.





USA.gov is the U.S. government's official web portal to all federal, state and local government web resources and services.